N1219L KFXE-KHPN

Flight info

Callsign N1219L
Flight time N/A
Altitude 37000
Route FEALX2 ETECK PELCN Y309 FLRDA SPOOF SAGGY CHIEZ Q161 KALDA Q108 SIE BOUNO5
Aircraft CL60/M-SBDE1E2E3FGHIJ1J4J5J7M3RWXYZ/LB1V1D1

Departure

Time N/A
Airport Fort Lauderdale Executive Airport (KFXE)

Arrival

Time 2026-05-04 00:29
Airport Westchester County Airport (KHPN)
Time Latitude Longitude Altitude Speed Heading
2026-05-04 00:05 40.77445 -73.30946 15000 ft 295 kts 14°
2026-05-04 00:05 40.79266 -73.29573 14916 ft 308 kts 33°
2026-05-04 00:05 40.80688 -73.27409 14570 ft 321 kts 49°
2026-05-04 00:06 40.81887 -73.24958 14129 ft 319 kts 50°
2026-05-04 00:06 40.83086 -73.22504 13844 ft 312 kts 50°
2026-05-04 00:06 40.84251 -73.20130 13500 ft 312 kts 50°
2026-05-04 00:06 40.85425 -73.17738 13175 ft 313 kts 50°
2026-05-04 00:07 40.86608 -73.15327 12849 ft 311 kts 50°
2026-05-04 00:07 40.87785 -73.12929 12507 ft 310 kts 49°
2026-05-04 00:07 40.88945 -73.10564 12139 ft 310 kts 49°
2026-05-04 00:07 40.90103 -73.08199 11891 ft 307 kts 49°
2026-05-04 00:08 40.91268 -73.05823 11466 ft 309 kts 49°
2026-05-04 00:08 40.92434 -73.03440 11110 ft 308 kts 48°
2026-05-04 00:08 40.93576 -73.01101 10751 ft 305 kts 48°
2026-05-04 00:08 40.94712 -72.98770 10454 ft 300 kts 48°
2026-05-04 00:09 40.95835 -72.96461 10227 ft 292 kts 47°
2026-05-04 00:09 40.96918 -72.94234 9985 ft 287 kts 47°
2026-05-04 00:09 40.97995 -72.92023 9710 ft 283 kts 47°
2026-05-04 00:09 40.99051 -72.89851 9445 ft 279 kts 47°
2026-05-04 00:10 41.00090 -72.87717 9192 ft 278 kts 47°
2026-05-04 00:10 41.01151 -72.85556 8925 ft 280 kts 46°
2026-05-04 00:10 41.02491 -72.83795 8647 ft 264 kts 21°
2026-05-04 00:10 41.04165 -72.83051 8374 ft 250 kts 358°
2026-05-04 00:11 41.05870 -72.83192 8103 ft 245 kts 344°
2026-05-04 00:11 41.07561 -72.83634 7878 ft 245 kts 343°
2026-05-04 00:11 41.09230 -72.84066 7651 ft 247 kts 343°
2026-05-04 00:11 41.10944 -72.84508 7423 ft 248 kts 343°
2026-05-04 00:12 41.12664 -72.84956 7181 ft 249 kts 342°
2026-05-04 00:12 41.14244 -72.85837 6921 ft 243 kts 321°
2026-05-04 00:12 41.15351 -72.87556 6655 ft 242 kts 297°
2026-05-04 00:12 41.15762 -72.89726 6366 ft 248 kts 276°
2026-05-04 00:13 41.15796 -72.92022 6124 ft 248 kts 274°
2026-05-04 00:13 41.15824 -72.94331 5899 ft 248 kts 275°
2026-05-04 00:13 41.15854 -72.96591 5760 ft 244 kts 274°
2026-05-04 00:13 41.15881 -72.98820 5758 ft 236 kts 274°
2026-05-04 00:14 41.15907 -73.00938 5790 ft 227 kts 275°
2026-05-04 00:14 41.15934 -73.03031 5677 ft 225 kts 274°
2026-05-04 00:14 41.15961 -73.05085 5623 ft 221 kts 274°
2026-05-04 00:14 41.15987 -73.07098 5548 ft 219 kts 274°
2026-05-04 00:15 41.16012 -73.09084 5485 ft 216 kts 274°
2026-05-04 00:15 41.16037 -73.11059 5416 ft 214 kts 275°
2026-05-04 00:15 41.16112 -73.13010 5352 ft 211 kts 278°
2026-05-04 00:15 41.16259 -73.14936 5288 ft 209 kts 279°
2026-05-04 00:16 41.16407 -73.16866 5222 ft 210 kts 279°
2026-05-04 00:16 41.16556 -73.18806 5153 ft 212 kts 279°
2026-05-04 00:16 41.16704 -73.20743 5091 ft 213 kts 278°
2026-05-04 00:16 41.16853 -73.22691 5028 ft 214 kts 278°
2026-05-04 00:17 41.17004 -73.24663 4961 ft 215 kts 278°
2026-05-04 00:17 41.17154 -73.26638 4896 ft 215 kts 278°
2026-05-04 00:17 41.17304 -73.28603 4831 ft 216 kts 278°
2026-05-04 00:17 41.17458 -73.30624 4761 ft 217 kts 278°
2026-05-04 00:18 41.17609 -73.32619 4697 ft 218 kts 278°
2026-05-04 00:18 41.17760 -73.34613 4632 ft 219 kts 278°
2026-05-04 00:18 41.17905 -73.36536 4568 ft 219 kts 278°
2026-05-04 00:18 41.18059 -73.38583 4497 ft 220 kts 278°
2026-05-04 00:19 41.18210 -73.40587 4433 ft 221 kts 278°
2026-05-04 00:19 41.18362 -73.42615 4363 ft 221 kts 278°
2026-05-04 00:19 41.18515 -73.44649 4297 ft 222 kts 278°
2026-05-04 00:19 41.18668 -73.46697 4230 ft 222 kts 278°
2026-05-04 00:20 41.18819 -73.48734 4162 ft 223 kts 278°
2026-05-04 00:20 41.18941 -73.50771 4096 ft 225 kts 272°
2026-05-04 00:20 41.18611 -73.52707 4031 ft 231 kts 249°
2026-05-04 00:20 41.17545 -73.54421 4022 ft 239 kts 222°
2026-05-04 00:21 41.16154 -73.55607 4024 ft 239 kts 218°
2026-05-04 00:21 41.14749 -73.56755 4026 ft 237 kts 218°
2026-05-04 00:21 41.13311 -73.57774 4025 ft 238 kts 202°
2026-05-04 00:21 41.11647 -73.57740 4027 ft 240 kts 170°
2026-05-04 00:22 41.10069 -73.57175 4033 ft 233 kts 169°
2026-05-04 00:22 41.08515 -73.56622 4035 ft 226 kts 170°
2026-05-04 00:22 41.07016 -73.56102 4034 ft 220 kts 170°
2026-05-04 00:22 41.05527 -73.55585 4027 ft 219 kts 171°
2026-05-04 00:23 41.04069 -73.55082 4023 ft 218 kts 171°
2026-05-04 00:23 41.02571 -73.54575 3895 ft 224 kts 173°
2026-05-04 00:23 41.01069 -73.54632 3515 ft 209 kts 207°
2026-05-04 00:23 40.99958 -73.55653 3277 ft 189 kts 238°
2026-05-04 00:24 40.99312 -73.57085 2979 ft 174 kts 249°
2026-05-04 00:24 40.98798 -73.58431 2805 ft 150 kts 249°
2026-05-04 00:24 40.98372 -73.59514 2672 ft 120 kts 250°
2026-05-04 00:24 40.97988 -73.60498 2448 ft 123 kts 250°
2026-05-04 00:25 40.97585 -73.61543 2267 ft 125 kts 250°
2026-05-04 00:25 40.97284 -73.62566 2056 ft 115 kts 277°
2026-05-04 00:25 40.97688 -73.63438 1877 ft 113 kts 309°
2026-05-04 00:25 40.98246 -73.64136 1825 ft 111 kts 314°
2026-05-04 00:26 40.98885 -73.64746 1878 ft 117 kts 325°
2026-05-04 00:26 40.99526 -73.65208 1824 ft 117 kts 323°
2026-05-04 00:26 41.00036 -73.65592 1745 ft 123 kts 325°
2026-05-04 00:27 41.01349 -73.66563 1582 ft 126 kts 326°
2026-05-04 00:27 41.02158 -73.67170 1456 ft 121 kts 323°
2026-05-04 00:27 41.02858 -73.67738 1192 ft 119 kts 322°
2026-05-04 00:27 41.03529 -73.68277 1001 ft 116 kts 323°
2026-05-04 00:28 41.04238 -73.68810 832 ft 119 kts 325°
2026-05-04 00:28 41.04928 -73.69327 684 ft 118 kts 326°
2026-05-04 00:28 41.05655 -73.69880 498 ft 116 kts 324°
2026-05-04 00:28 41.06327 -73.70390 391 ft 103 kts 326°
2026-05-04 00:29 41.06723 -73.70697 403 ft 19 kts 329°
2026-05-04 00:29 41.06778 -73.70738 405 ft 7 kts 332°
2026-05-04 00:29 41.06833 -73.70768 406 ft 11 kts 352°
2026-05-04 00:29 41.06911 -73.70746 408 ft 10 kts 14°
2026-05-04 00:30 41.06951 -73.70733 409 ft 4 kts 13°
2026-05-04 00:30 41.06980 -73.70722 410 ft 3 kts 15°
2026-05-04 00:30 41.07010 -73.70705 411 ft 6 kts 37°
2026-05-04 00:30 41.07037 -73.70657 411 ft 2 kts 57°
2026-05-04 00:31 41.07036 -73.70626 411 ft 0 kts 142°
2026-05-04 00:31 41.07025 -73.70617 410 ft 0 kts 148°